timestamp,wind_dir_avg,wind_spd_avg,wind_spd_max_dir,wind_spd_gust,battery_voltage,lat,long
2023-09-21 00:04:00+00:00,235.0,5.42,235.0,6.19,12.41,47.59359,-54.27349
2023-09-21 00:14:01+00:00,246.0,5.49,237.0,6.36,12.41,47.59359,-54.27349
2023-09-21 00:24:01+00:00,259.0,5.67,261.0,6.25,12.41,47.59359,-54.27349
2023-09-21 00:34:01+00:00,264.0,4.21,263.0,5.02,12.41,47.59359,-54.27349
2023-09-21 00:44:01+00:00,252.0,4.21,259.0,5.04,12.41,47.59359,-54.27349
2023-09-21 00:54:01+00:00,234.0,5.25,237.0,5.85,12.41,47.59359,-54.27349
2023-09-21 01:04:01+00:00,238.0,4.79,239.0,5.46,12.41,47.59359,-54.27349
2023-09-21 01:14:00+00:00,238.0,5.1,240.0,5.99,12.41,47.59359,-54.27349
2023-09-21 01:24:00+00:00,244.0,5.26,245.0,6.17,12.41,47.59359,-54.27349
2023-09-21 01:34:00+00:00,249.0,4.81,252.0,5.96,12.41,47.59359,-54.27349
2023-09-21 01:44:00+00:00,252.0,5.12,252.0,5.91,12.41,47.59359,-54.27349
2023-09-21 01:54:00+00:00,240.0,4.96,245.0,5.77,12.41,47.59359,-54.27349
2023-09-21 02:04:00+00:00,238.0,6.63,236.0,7.72,12.41,47.59359,-54.27349
2023-09-21 02:14:01+00:00,242.0,6.43,237.0,7.55,12.41,47.59359,-54.27349
2023-09-21 02:24:01+00:00,247.0,6.43,249.0,7.13,12.41,47.59359,-54.27349
2023-09-21 02:34:01+00:00,249.0,6.12,249.0,6.72,12.41,47.59359,-54.27349
2023-09-21 02:44:01+00:00,253.0,5.6,251.0,6.19,12.41,47.59359,-54.27349
2023-09-21 02:54:01+00:00,250.0,5.46,253.0,6.27,12.41,47.59359,-54.27349
2023-09-21 03:04:01+00:00,246.0,4.65,254.0,5.46,12.41,47.59359,-54.27349
2023-09-21 03:14:01+00:00,247.0,4.61,250.0,5.03,12.41,47.59359,-54.27349
2023-09-21 03:24:01+00:00,249.0,4.48,253.0,5.2,12.41,47.59359,-54.27349
2023-09-21 03:34:01+00:00,254.0,4.32,254.0,5.15,12.41,47.59359,-54.27349
2023-09-21 03:44:01+00:00,242.0,5.21,248.0,5.8,12.41,47.59359,-54.27349
2023-09-21 03:54:01+00:00,242.0,5.68,242.0,6.21,12.41,47.59359,-54.27349
2023-09-21 04:04:01+00:00,246.0,5.36,245.0,5.87,12.41,47.59359,-54.27349
2023-09-21 04:14:00+00:00,250.0,4.71,252.0,5.29,12.33,47.59359,-54.27349
2023-09-21 04:24:00+00:00,252.0,5.51,253.0,5.87,12.33,47.59359,-54.27349
2023-09-21 04:34:00+00:00,255.0,4.73,259.0,5.28,12.33,47.59359,-54.27349
2023-09-21 04:44:00+00:00,251.0,4.89,252.0,5.63,12.33,47.59359,-54.27349
2023-09-21 04:54:00+00:00,252.0,5.2,254.0,5.69,12.33,47.59359,-54.27349
2023-09-21 05:04:00+00:00,251.0,4.02,253.0,4.58,12.33,47.59359,-54.27349
2023-09-21 05:14:01+00:00,249.0,4.31,250.0,4.97,12.33,47.59359,-54.27349
2023-09-21 05:24:01+00:00,259.0,3.34,266.0,4.27,12.33,47.59359,-54.27349
2023-09-21 05:34:01+00:00,269.0,3.75,263.0,4.9,12.33,47.59359,-54.27349
2023-09-21 05:44:01+00:00,283.0,3.16,284.0,3.61,12.33,47.59359,-54.27349
2023-09-21 05:54:01+00:00,279.0,2.53,273.0,3.06,12.33,47.59359,-54.27349
2023-09-21 06:04:01+00:00,317.0,2.93,326.0,3.41,12.33,47.59359,-54.27349
2023-09-21 06:14:00+00:00,326.0,4.25,334.0,5.06,12.33,47.59359,-54.27349
2023-09-21 06:24:00+00:00,323.0,5.23,321.0,6.21,12.33,47.59359,-54.27349
2023-09-21 06:34:00+00:00,349.0,7.05,347.0,8.1,12.33,47.59359,-54.27349
2023-09-21 06:44:00+00:00,347.0,7.65,345.0,8.3,12.33,47.59359,-54.27349
2023-09-21 06:54:00+00:00,346.0,8.57,352.0,9.57,12.33,47.59359,-54.27349
2023-09-21 07:04:00+00:00,357.0,9.43,356.0,10.25,12.33,47.59359,-54.27349
2023-09-21 07:14:00+00:00,349.0,7.02,355.0,7.82,12.25,47.59359,-54.27349
2023-09-21 07:24:00+00:00,1.0,6.81,0.0,7.69,12.25,47.59359,-54.27349
2023-09-21 07:34:00+00:00,351.0,8.22,349.0,9.07,12.25,47.59359,-54.27349
2023-09-21 07:44:00+00:00,345.0,8.48,347.0,9.66,12.25,47.59359,-54.27349
2023-09-21 07:54:00+00:00,349.0,7.13,351.0,7.73,12.25,47.59359,-54.27349
2023-09-21 08:04:00+00:00,349.0,7.65,348.0,9.48,12.25,47.59359,-54.27349
2023-09-21 08:14:00+00:00,352.0,6.49,344.0,7.52,12.25,47.59359,-54.27349
2023-09-21 08:24:00+00:00,2.0,6.71,4.0,7.96,12.25,47.59359,-54.27349
2023-09-21 08:34:00+00:00,351.0,6.55,344.0,7.91,12.25,47.59359,-54.27349
2023-09-21 08:44:00+00:00,348.0,7.84,350.0,8.67,12.25,47.59359,-54.27349
2023-09-21 08:54:00+00:00,0.0,7.19,3.0,8.28,12.25,47.59359,-54.27349
2023-09-21 09:04:00+00:00,345.0,7.3,347.0,8.11,12.25,47.59359,-54.27349
2023-09-21 09:14:00+00:00,358.0,7.46,356.0,8.95,12.25,47.59359,-54.27349
2023-09-21 09:24:00+00:00,336.0,6.5,333.0,7.57,12.25,47.59359,-54.27349
2023-09-21 09:34:00+00:00,357.0,7.53,349.0,8.9,12.25,47.59359,-54.27349
2023-09-21 09:44:00+00:00,355.0,6.88,349.0,7.6,12.25,47.59359,-54.27349
2023-09-21 09:54:00+00:00,352.0,8.63,351.0,9.64,12.25,47.59359,-54.27349
2023-09-21 10:04:00+00:00,349.0,8.43,353.0,9.96,12.25,47.59359,-54.27349
2023-09-21 10:14:01+00:00,344.0,7.59,347.0,8.8,12.25,47.59359,-54.27349
2023-09-21 10:24:01+00:00,357.0,8.04,3.0,9.33,12.25,47.59359,-54.27349
2023-09-21 10:34:01+00:00,350.0,7.72,342.0,8.96,12.25,47.59359,-54.27349
2023-09-21 10:44:01+00:00,351.0,8.99,348.0,10.01,12.25,47.59359,-54.27349
2023-09-21 10:54:01+00:00,346.0,7.11,343.0,8.45,12.25,47.59359,-54.27349
2023-09-21 11:04:01+00:00,354.0,7.16,358.0,8.59,12.25,47.59359,-54.27349
2023-09-21 11:14:01+00:00,359.0,7.97,359.0,9.34,13.53,47.59359,-54.27349
2023-09-21 11:24:01+00:00,3.0,7.57,2.0,9.24,13.53,47.59359,-54.27349
2023-09-21 11:34:01+00:00,0.0,7.39,5.0,8.64,13.53,47.59359,-54.27349
2023-09-21 11:44:01+00:00,348.0,6.28,350.0,7.25,13.53,47.59359,-54.27349
2023-09-21 11:54:01+00:00,5.0,5.82,359.0,6.69,13.53,47.59359,-54.27349
2023-09-21 12:04:01+00:00,352.0,5.86,346.0,6.6,13.53,47.59359,-54.27349
2023-09-21 12:14:00+00:00,354.0,6.31,5.0,7.59,13.68,47.59359,-54.27349
2023-09-21 12:24:00+00:00,353.0,7.25,354.0,9.57,13.68,47.59359,-54.27349
2023-09-21 12:34:00+00:00,3.0,6.53,12.0,7.58,13.68,47.59359,-54.27349
2023-09-21 12:44:00+00:00,358.0,6.88,359.0,8.33,13.68,47.59359,-54.27349
2023-09-21 12:54:00+00:00,10.0,5.43,12.0,6.86,13.68,47.59359,-54.27349
2023-09-21 13:04:00+00:00,3.0,6.98,356.0,9.87,13.68,47.59359,-54.27349
2023-09-21 13:14:00+00:00,355.0,6.71,3.0,8.38,14.32,47.59359,-54.27349
2023-09-21 13:24:00+00:00,350.0,5.57,343.0,6.95,14.32,47.59359,-54.27349
2023-09-21 13:34:00+00:00,358.0,6.35,355.0,8.65,14.32,47.59359,-54.27349
2023-09-21 13:44:00+00:00,357.0,7.6,349.0,9.05,14.32,47.59359,-54.27349
2023-09-21 13:54:00+00:00,5.0,7.47,5.0,9.17,14.32,47.59359,-54.27349
2023-09-21 14:04:00+00:00,359.0,7.56,1.0,8.6,14.32,47.59359,-54.27349
2023-09-21 14:14:01+00:00,357.0,6.56,358.0,7.31,13.84,47.59359,-54.27349
2023-09-21 14:24:01+00:00,358.0,7.58,4.0,9.41,13.84,47.59359,-54.27349
2023-09-21 14:34:01+00:00,1.0,8.6,2.0,9.67,13.84,47.59359,-54.27349
2023-09-21 14:44:01+00:00,4.0,5.74,358.0,7.1,13.84,47.59359,-54.27349
2023-09-21 14:54:01+00:00,4.0,7.43,0.0,8.71,13.84,47.59359,-54.27349
2023-09-21 15:04:01+00:00,349.0,5.53,359.0,6.77,13.84,47.59359,-54.27349
2023-09-21 15:14:00+00:00,357.0,5.25,351.0,6.13,14.32,47.59359,-54.27349
2023-09-21 15:24:00+00:00,347.0,7.2,343.0,9.17,14.32,47.59359,-54.27349
2023-09-21 15:34:00+00:00,352.0,5.63,353.0,7.6,14.32,47.59359,-54.27349
2023-09-21 15:44:00+00:00,355.0,5.96,359.0,6.74,14.32,47.59359,-54.27349
2023-09-21 15:54:00+00:00,336.0,8.59,341.0,9.27,14.32,47.59359,-54.27349
2023-09-21 16:04:00+00:00,345.0,6.59,345.0,7.41,14.32,47.59359,-54.27349
2023-09-21 16:14:01+00:00,354.0,6.0,343.0,8.17,14.0,47.59359,-54.27349
2023-09-21 16:24:01+00:00,341.0,7.56,341.0,8.76,14.0,47.59359,-54.27349
2023-09-21 16:34:01+00:00,351.0,7.71,354.0,9.36,14.0,47.59359,-54.27349
2023-09-21 16:44:01+00:00,357.0,7.63,1.0,8.75,14.0,47.59359,-54.27349
2023-09-21 16:54:01+00:00,0.0,7.96,7.0,9.63,14.0,47.59359,-54.27349
2023-09-21 17:04:01+00:00,342.0,8.68,342.0,9.81,14.0,47.59359,-54.27349
2023-09-21 17:14:00+00:00,347.0,7.51,343.0,8.25,13.76,47.59359,-54.27349
2023-09-21 17:24:00+00:00,355.0,8.23,357.0,8.79,13.76,47.59359,-54.27349
2023-09-21 17:34:00+00:00,359.0,7.67,0.0,9.54,13.76,47.59359,-54.27349
2023-09-21 17:44:00+00:00,349.0,9.58,350.0,10.56,13.76,47.59359,-54.27349
2023-09-21 17:54:00+00:00,356.0,8.16,358.0,9.37,13.76,47.59359,-54.27349
2023-09-21 18:04:00+00:00,340.0,8.2,330.0,9.42,13.76,47.59359,-54.27349
2023-09-21 18:14:00+00:00,0.0,7.38,357.0,8.75,13.92,47.59359,-54.27349
2023-09-21 18:24:00+00:00,355.0,9.44,358.0,10.9,13.92,47.59359,-54.27349
2023-09-21 18:34:00+00:00,354.0,7.94,354.0,9.32,13.92,47.59359,-54.27349
2023-09-21 18:44:00+00:00,352.0,8.82,352.0,9.81,13.92,47.59359,-54.27349
2023-09-21 18:54:00+00:00,354.0,10.4,354.0,11.45,13.92,47.59359,-54.27349
2023-09-21 19:04:00+00:00,5.0,9.05,0.0,10.47,13.92,47.59359,-54.27349
2023-09-21 19:14:00+00:00,1.0,9.84,358.0,12.3,13.68,47.59359,-54.27349
2023-09-21 19:24:00+00:00,7.0,10.86,4.0,12.46,13.68,47.59359,-54.27349
2023-09-21 19:34:00+00:00,10.0,9.42,15.0,11.53,13.68,47.59359,-54.27349
2023-09-21 19:44:00+00:00,354.0,11.48,357.0,12.9,13.68,47.59359,-54.27349
2023-09-21 19:54:00+00:00,12.0,8.57,15.0,10.56,13.68,47.59359,-54.27349
2023-09-21 20:04:00+00:00,349.0,11.66,353.0,12.99,13.68,47.59359,-54.27349
2023-09-21 20:14:00+00:00,12.0,9.38,18.0,11.0,13.29,47.59359,-54.27349
2023-09-21 20:24:00+00:00,11.0,9.58,14.0,11.11,13.29,47.59359,-54.27349
2023-09-21 20:34:00+00:00,356.0,11.32,346.0,12.96,13.29,47.59359,-54.27349
2023-09-21 20:44:00+00:00,0.0,10.87,7.0,12.42,13.29,47.59359,-54.27349
2023-09-21 20:54:00+00:00,4.0,11.81,7.0,13.7,13.29,47.59359,-54.27349
2023-09-21 21:04:00+00:00,14.0,10.4,15.0,12.34,13.29,47.59359,-54.27349
2023-09-21 21:14:00+00:00,355.0,11.87,351.0,13.72,12.81,47.59359,-54.27349
2023-09-21 21:24:00+00:00,1.0,12.51,5.0,14.7,12.81,47.59359,-54.27349
2023-09-21 21:34:00+00:00,6.0,11.83,6.0,13.75,12.81,47.59359,-54.27349
2023-09-21 21:44:00+00:00,3.0,13.71,3.0,15.08,12.81,47.59359,-54.27349
2023-09-21 21:54:00+00:00,3.0,11.25,7.0,12.76,12.81,47.59359,-54.27349
2023-09-21 22:04:00+00:00,4.0,11.24,11.0,13.93,12.81,47.59359,-54.27349
2023-09-21 22:14:00+00:00,7.0,12.99,359.0,14.99,12.41,47.59359,-54.27349
2023-09-21 22:24:00+00:00,12.0,12.08,15.0,13.38,12.41,47.59359,-54.27349
2023-09-21 22:34:00+00:00,13.0,13.25,21.0,15.05,12.41,47.59359,-54.27349
2023-09-21 22:44:00+00:00,13.0,9.88,15.0,12.21,12.41,47.59359,-54.27349
2023-09-21 22:54:00+00:00,2.0,11.47,358.0,13.65,12.41,47.59359,-54.27349
2023-09-21 23:04:00+00:00,12.0,12.42,17.0,15.99,12.41,47.59359,-54.27349
2023-09-21 23:14:00+00:00,7.0,11.08,13.0,12.68,12.41,47.59359,-54.27349
2023-09-21 23:24:00+00:00,6.0,11.88,13.0,14.67,12.41,47.59359,-54.27349
2023-09-21 23:34:00+00:00,13.0,11.86,17.0,13.9,12.41,47.59359,-54.27349
2023-09-21 23:44:00+00:00,8.0,12.98,21.0,14.61,12.41,47.59359,-54.27349
2023-09-21 23:54:00+00:00,15.0,12.18,23.0,13.4,12.41,47.59359,-54.27349
